Time,TemperatureF,DewpointF,PressureIn,WindDirection,WindDirectionDegrees,WindSpeedMPH,WindSpeedGustMPH,Humidity,HourlyPrecipIn,Conditions,Clouds,dailyrainin,SoftwareType,DateUTC
2013-03-23 00:02:00,36.0,20.0,-100.00,North,5,3.0,6.0,51,-99.99,,,-99.99,,2013-03-23 07:02:00,
2013-03-23 00:12:00,36.0,20.0,-100.00,North,5,3.0,6.0,51,-99.99,,,-99.99,,2013-03-23 07:12:00,
2013-03-23 01:02:00,34.0,21.0,-100.00,SSE,165,2.0,5.0,58,-99.99,,,-99.99,,2013-03-23 08:02:00,
2013-03-23 01:12:00,34.0,21.0,-100.00,SSE,165,2.0,5.0,58,-99.99,,,-99.99,,2013-03-23 08:12:00,
2013-03-23 02:02:00,33.0,21.0,-100.00,SE,135,1.0,3.0,60,-99.99,,,-99.99,,2013-03-23 09:02:00,
2013-03-23 03:03:00,31.0,21.0,-100.00,South,175,1.0,3.0,66,-99.99,,,-99.99,,2013-03-23 10:03:00,
2013-03-23 03:12:00,31.0,21.0,-100.00,South,175,1.0,3.0,66,-99.99,,,-99.99,,2013-03-23 10:12:00,
2013-03-23 04:03:00,31.0,20.0,-100.00,NNE,25,5.0,6.0,63,-99.99,,,-99.99,,2013-03-23 11:03:00,
2013-03-23 05:02:00,30.0,20.0,-100.00,South,175,1.0,7.0,65,-99.99,,,-99.99,,2013-03-23 12:02:00,
2013-03-23 05:12:00,30.0,20.0,-100.00,South,175,1.0,7.0,65,-99.99,,,-99.99,,2013-03-23 12:12:00,
2013-03-23 06:02:00,30.0,21.0,-100.00,SE,145,1.0,6.0,68,-99.99,,,-99.99,,2013-03-23 13:02:00,
2013-03-23 07:03:00,30.0,21.0,-100.00,SE,130,1.0,5.0,68,-99.99,,,-99.99,,2013-03-23 14:03:00,
2013-03-23 07:12:00,30.0,21.0,-100.00,SE,130,1.0,5.0,68,-99.99,,,-99.99,,2013-03-23 14:12:00,
2013-03-23 08:03:00,30.0,21.0,-100.00,South,170,1.0,3.0,68,-99.99,,,-99.99,,2013-03-23 15:03:00,
2013-03-23 08:10:00,31.0,22.0,-100.00,North,5,1.0,3.0,68,-99.99,,,-99.99,,2013-03-23 15:10:00,
2013-03-23 09:03:00,31.0,22.0,-100.00,North,5,1.0,3.0,68,-99.99,,,-99.99,,2013-03-23 16:03:00,
2013-03-23 10:02:00,32.0,21.0,-100.00,ESE,120,1.0,5.0,63,-99.99,,,-99.99,,2013-03-23 17:02:00,
2013-03-23 10:10:00,35.0,21.0,-100.00,ESE,115,3.0,7.0,56,-99.99,,,-99.99,,2013-03-23 17:10:00,
2013-03-23 11:00:00,40.0,20.0,-100.00,South,175,3.0,5.0,44,-99.99,,,-99.99,,2013-03-23 18:00:00,
2013-03-23 11:03:00,35.0,21.0,-100.00,ESE,115,3.0,7.0,56,-99.99,,,-99.99,,2013-03-23 18:03:00,
2013-03-23 12:10:00,44.0,20.0,-100.00,SW,235,5.0,9.0,37,-99.99,,,-99.99,,2013-03-23 19:10:00,
2013-03-23 13:02:00,44.0,20.0,-100.00,SW,235,5.0,9.0,37,-99.99,,,-99.99,,2013-03-23 20:02:00,
2013-03-23 13:20:00,45.0,19.0,-100.00,SW,235,9.0,14.0,35,-99.99,,,-99.99,,2013-03-23 20:20:00,
2013-03-23 14:02:00,45.0,19.0,-100.00,SW,235,9.0,14.0,35,-99.99,,,-99.99,,2013-03-23 21:02:00,
2013-03-23 14:10:00,48.0,20.0,-100.00,WSW,240,6.0,14.0,32,-99.99,,,-99.99,,2013-03-23 21:10:00,
2013-03-23 14:12:00,45.0,19.0,-100.00,SW,235,9.0,14.0,35,-99.99,,,-99.99,,2013-03-23 21:12:00,
2013-03-23 15:02:00,48.0,20.0,-100.00,WSW,240,6.0,14.0,32,-99.99,,,-99.99,,2013-03-23 22:02:00,
2013-03-23 16:10:00,49.0,19.0,-100.00,WNW,295,6.0,10.0,30,-99.99,,,-99.99,,2013-03-23 23:10:00,
2013-03-23 17:02:00,49.0,19.0,-100.00,WNW,295,6.0,10.0,30,-99.99,,,-99.99,,2013-03-24 00:02:00,
2013-03-23 20:02:00,45.0,24.0,-100.00,SW,220,3.0,5.0,43,-99.99,,,-99.99,,2013-03-24 03:02:00,
2013-03-23 20:12:00,45.0,24.0,-100.00,SW,220,3.0,5.0,43,-99.99,,,-99.99,,2013-03-24 03:12:00,
2013-03-23 21:02:00,40.0,26.0,-100.00,North,5,0.0,2.0,57,-99.99,,,-99.99,,2013-03-24 04:02:00,
2013-03-23 22:02:00,37.0,27.0,-100.00,North,5,1.0,5.0,66,-99.99,,,-99.99,,2013-03-24 05:02:00,
2013-03-23 22:12:00,37.0,27.0,-100.00,North,5,1.0,5.0,66,-99.99,,,-99.99,,2013-03-24 05:12:00,
2013-03-23 23:02:00,34.0,26.0,-100.00,ESE,120,0.0,1.0,72,-99.99,,,-99.99,,2013-03-24 06:02:00,